Time,TemperatureF,DewpointF,PressureIn,WindDirection,WindDirectionDegrees,WindSpeedMPH,WindSpeedGustMPH,Humidity,HourlyPrecipIn,Conditions,Clouds,dailyrainin,SoftwareType,DateUTC
2013-05-26 00:14:00,56.4,42.0,29.77,West,276,4.0,5.0,59,0.00,,,0.00,weatherlink.com 1.10,2013-05-26 06:14:00,
2013-05-26 00:29:00,55.5,43.0,29.78,West,276,2.0,4.0,63,0.00,,,0.00,weatherlink.com 1.10,2013-05-26 06:29:00,
2013-05-26 00:44:00,53.5,43.0,29.77,West,276,0.0,5.0,68,0.00,,,0.00,weatherlink.com 1.10,2013-05-26 06:44:00,
2013-05-26 00:59:00,53.7,42.0,29.77,West,276,1.0,6.0,66,0.00,,,0.00,weatherlink.com 1.10,2013-05-26 06:59:00,
2013-05-26 01:14:00,53.0,42.0,29.77,West,276,4.0,4.0,67,0.00,,,0.00,weatherlink.com 1.10,2013-05-26 07:14:00,
2013-05-26 01:29:00,52.4,42.0,29.77,West,276,4.0,5.0,68,0.00,,,0.00,weatherlink.com 1.10,2013-05-26 07:29:00,
2013-05-26 01:44:00,51.5,42.0,29.77,West,276,3.0,4.0,70,0.00,,,0.00,weatherlink.com 1.10,2013-05-26 07:44:00,
2013-05-26 01:59:00,52.4,40.0,29.77,West,276,4.0,6.0,64,0.00,,,0.00,weatherlink.com 1.10,2013-05-26 07:59:00,
2013-05-26 02:14:00,53.5,39.0,29.77,West,276,1.0,6.0,59,0.00,,,0.00,weatherlink.com 1.10,2013-05-26 08:14:00,
2013-05-26 02:29:00,55.1,36.0,29.77,West,273,11.0,11.0,48,0.00,,,0.00,weatherlink.com 1.10,2013-05-26 08:29:00,
2013-05-26 02:44:00,54.3,37.0,29.76,SW,231,5.0,8.0,52,0.00,,,0.00,weatherlink.com 1.10,2013-05-26 08:44:00,
2013-05-26 02:59:00,53.1,38.0,29.77,SW,231,2.0,3.0,56,0.00,,,0.00,weatherlink.com 1.10,2013-05-26 08:59:00,
2013-05-26 03:14:00,51.0,40.0,29.77,SW,231,3.0,6.0,66,0.00,,,0.00,weatherlink.com 1.10,2013-05-26 09:14:00,
2013-05-26 03:29:00,48.9,41.0,29.78,SW,231,5.0,6.0,73,0.00,,,0.00,weatherlink.com 1.10,2013-05-26 09:29:00,
2013-05-26 03:44:00,48.6,41.0,29.78,SW,231,3.0,7.0,75,0.00,,,0.00,weatherlink.com 1.10,2013-05-26 09:44:00,
2013-05-26 03:59:00,48.1,42.0,29.79,SW,231,0.0,2.0,78,0.00,,,0.00,weatherlink.com 1.10,2013-05-26 09:59:00,
2013-05-26 04:14:00,47.7,41.0,29.79,SW,231,2.0,3.0,78,0.00,,,0.00,weatherlink.com 1.10,2013-05-26 10:14:00,
2013-05-26 04:29:00,47.4,41.0,29.79,SW,231,1.0,3.0,78,0.00,,,0.00,weatherlink.com 1.10,2013-05-26 10:29:00,
2013-05-26 04:44:00,47.1,41.0,29.79,SW,231,3.0,7.0,78,0.00,,,0.00,weatherlink.com 1.10,2013-05-26 10:44:00,
2013-05-26 04:59:00,47.4,41.0,29.79,SW,231,1.0,5.0,77,0.00,,,0.00,weatherlink.com 1.10,2013-05-26 10:59:00,
2013-05-26 05:15:00,47.1,41.0,29.80,SW,231,1.0,3.0,78,0.00,,,0.00,weatherlink.com 1.10,2013-05-26 11:15:00,
2013-05-26 05:30:00,46.6,40.0,29.80,SW,231,5.0,5.0,78,0.00,,,0.00,weatherlink.com 1.10,2013-05-26 11:30:00,
2013-05-26 05:45:00,47.0,39.0,29.81,SW,231,3.0,6.0,75,0.00,,,0.00,weatherlink.com 1.10,2013-05-26 11:45:00,
2013-05-26 06:00:00,47.2,39.0,29.82,SW,231,2.0,7.0,73,0.00,,,0.00,weatherlink.com 1.10,2013-05-26 12:00:00,
2013-05-26 06:15:00,48.2,38.0,29.82,SW,231,0.0,0.0,69,0.00,,,0.00,weatherlink.com 1.10,2013-05-26 12:15:00,
2013-05-26 06:30:00,49.2,38.0,29.82,SW,231,0.0,0.0,65,0.00,,,0.00,weatherlink.com 1.10,2013-05-26 12:30:00,
2013-05-26 06:45:00,50.0,38.0,29.82,SW,231,0.0,2.0,64,0.00,,,0.00,weatherlink.com 1.10,2013-05-26 12:45:00,
2013-05-26 07:00:00,50.4,40.0,29.83,SW,231,0.0,2.0,68,0.00,,,0.00,weatherlink.com 1.10,2013-05-26 13:00:00,
2013-05-26 07:15:00,51.2,41.0,29.83,SW,231,1.0,3.0,67,0.00,,,0.00,weatherlink.com 1.10,2013-05-26 13:15:00,
2013-05-26 07:30:00,52.5,41.0,29.84,SW,231,0.0,3.0,66,0.00,,,0.00,weatherlink.com 1.10,2013-05-26 13:30:00,
2013-05-26 07:45:00,53.7,41.0,29.83,SW,231,1.0,2.0,63,0.00,,,0.00,weatherlink.com 1.10,2013-05-26 13:45:00,
2013-05-26 08:00:00,55.4,41.0,29.83,SW,233,0.0,4.0,59,0.00,,,0.00,weatherlink.com 1.10,2013-05-26 14:00:00,
2013-05-26 08:15:00,56.7,41.0,29.83,SW,232,1.0,4.0,57,0.00,,,0.00,weatherlink.com 1.10,2013-05-26 14:15:00,
2013-05-26 08:30:00,57.4,40.0,29.83,SW,232,1.0,4.0,52,0.00,,,0.00,weatherlink.com 1.10,2013-05-26 14:30:00,
2013-05-26 08:45:00,57.5,39.0,29.82,SW,233,2.0,7.0,51,0.00,,,0.00,weatherlink.com 1.10,2013-05-26 14:45:00,
2013-05-26 09:00:00,58.2,39.0,29.82,SW,232,8.0,8.0,50,0.00,,,0.00,weatherlink.com 1.10,2013-05-26 15:00:00,
2013-05-26 09:16:00,59.0,38.0,29.83,SW,231,3.0,8.0,46,0.00,,,0.00,weatherlink.com 1.10,2013-05-26 15:16:00,
2013-05-26 09:30:00,59.3,38.0,29.83,SW,231,8.0,8.0,46,0.00,,,0.00,weatherlink.com 1.10,2013-05-26 15:30:00,
2013-05-26 09:45:00,59.7,39.0,29.82,SW,231,3.0,6.0,47,0.00,,,0.00,weatherlink.com 1.10,2013-05-26 15:45:00,
2013-05-26 10:00:00,60.3,39.0,29.82,SW,231,3.0,6.0,46,0.00,,,0.00,weatherlink.com 1.10,2013-05-26 16:00:00,
2013-05-26 10:15:00,60.9,39.0,29.81,SW,231,4.0,4.0,45,0.00,,,0.00,weatherlink.com 1.10,2013-05-26 16:15:00,
2013-05-26 10:30:00,61.5,39.0,29.81,SW,231,0.0,4.0,44,0.00,,,0.00,weatherlink.com 1.10,2013-05-26 16:30:00,
2013-05-26 10:45:00,61.6,40.0,29.80,SW,231,1.0,6.0,45,0.00,,,0.00,weatherlink.com 1.10,2013-05-26 16:45:00,
2013-05-26 11:00:00,61.6,40.0,29.80,SW,231,1.0,6.0,46,0.00,,,0.00,weatherlink.com 1.10,2013-05-26 17:00:00,
2013-05-26 11:15:00,61.8,40.0,29.80,SW,231,4.0,6.0,45,0.00,,,0.00,weatherlink.com 1.10,2013-05-26 17:15:00,
2013-05-26 11:30:00,62.2,41.0,29.80,SW,231,0.0,5.0,46,0.00,,,0.00,weatherlink.com 1.10,2013-05-26 17:30:00,
2013-05-26 11:45:00,63.4,42.0,29.79,SW,221,3.0,6.0,45,0.00,,,0.00,weatherlink.com 1.10,2013-05-26 17:45:00,
2013-05-26 12:00:00,63.6,42.0,29.79,SW,221,3.0,4.0,46,0.00,,,0.00,weatherlink.com 1.10,2013-05-26 18:00:00,
2013-05-26 12:16:00,64.7,43.0,29.78,SW,221,0.0,4.0,45,0.00,,,0.00,weatherlink.com 1.10,2013-05-26 18:16:00,
2013-05-26 12:31:00,65.2,43.0,29.77,SW,221,0.0,6.0,44,0.00,,,0.00,weatherlink.com 1.10,2013-05-26 18:31:00,
2013-05-26 12:46:00,66.0,42.0,29.76,SW,221,3.0,6.0,42,0.00,,,0.00,weatherlink.com 1.10,2013-05-26 18:46:00,
2013-05-26 13:01:00,66.8,42.0,29.75,SW,221,2.0,6.0,40,0.00,,,0.00,weatherlink.com 1.10,2013-05-26 19:01:00,
2013-05-26 13:16:00,67.7,41.0,29.74,SW,221,3.0,6.0,38,0.00,,,0.00,weatherlink.com 1.10,2013-05-26 19:16:00,
2013-05-26 13:31:00,67.9,42.0,29.73,SSW,194,2.0,6.0,39,0.00,,,0.00,weatherlink.com 1.10,2013-05-26 19:31:00,
2013-05-26 13:46:00,67.3,41.0,29.74,SSW,194,1.0,5.0,39,0.00,,,0.00,weatherlink.com 1.10,2013-05-26 19:46:00,
2013-05-26 14:01:00,66.8,42.0,29.74,SSW,194,5.0,6.0,40,0.00,,,0.00,weatherlink.com 1.10,2013-05-26 20:01:00,
2013-05-26 14:16:00,67.5,40.0,29.73,SSW,194,2.0,4.0,37,0.00,,,0.00,weatherlink.com 1.10,2013-05-26 20:16:00,
2013-05-26 14:31:00,68.9,40.0,29.72,SSW,194,3.0,5.0,35,0.00,,,0.00,weatherlink.com 1.10,2013-05-26 20:31:00,
2013-05-26 14:46:00,68.6,40.0,29.72,South,169,3.0,6.0,35,0.00,,,0.00,weatherlink.com 1.10,2013-05-26 20:46:00,
2013-05-26 15:01:00,68.4,40.0,29.72,South,169,1.0,4.0,35,0.00,,,0.00,weatherlink.com 1.10,2013-05-26 21:01:00,
2013-05-26 15:16:00,68.8,40.0,29.73,South,169,6.0,6.0,35,0.00,,,0.00,weatherlink.com 1.10,2013-05-26 21:16:00,
2013-05-26 15:31:00,69.0,42.0,29.72,SSE,149,8.0,10.0,37,0.00,,,0.00,weatherlink.com 1.10,2013-05-26 21:31:00,
2013-05-26 15:46:00,70.2,43.0,29.71,SE,126,9.0,13.0,38,0.00,,,0.00,weatherlink.com 1.10,2013-05-26 21:46:00,
2013-05-26 16:01:00,69.7,41.0,29.70,ENE,76,3.0,11.0,35,0.00,,,0.00,weatherlink.com 1.10,2013-05-26 22:01:00,
2013-05-26 16:16:00,70.2,40.0,29.70,ENE,76,3.0,10.0,34,0.00,,,0.00,weatherlink.com 1.10,2013-05-26 22:16:00,
2013-05-26 16:31:00,71.2,40.0,29.68,ENE,76,4.0,9.0,32,0.00,,,0.00,weatherlink.com 1.10,2013-05-26 22:31:00,
2013-05-26 16:46:00,71.5,41.0,29.68,ENE,76,3.0,5.0,33,0.00,,,0.00,weatherlink.com 1.10,2013-05-26 22:46:00,
2013-05-26 17:01:00,71.8,40.0,29.67,ENE,76,9.0,10.0,32,0.00,,,0.00,weatherlink.com 1.10,2013-05-26 23:01:00,
2013-05-26 17:16:00,71.7,40.0,29.67,NE,53,6.0,6.0,32,0.00,,,0.00,weatherlink.com 1.10,2013-05-26 23:16:00,
2013-05-26 17:31:00,71.2,40.0,29.67,NE,53,3.0,6.0,32,0.00,,,0.00,weatherlink.com 1.10,2013-05-26 23:31:00,
2013-05-26 17:46:00,72.1,40.0,29.66,NE,53,4.0,5.0,31,0.00,,,0.00,weatherlink.com 1.10,2013-05-26 23:46:00,
2013-05-26 18:01:00,72.4,39.0,29.66,NE,53,3.0,5.0,30,0.00,,,0.00,weatherlink.com 1.10,2013-05-27 00:01:00,
2013-05-26 18:16:00,71.3,39.0,29.67,NE,53,1.0,5.0,31,0.00,,,0.00,weatherlink.com 1.10,2013-05-27 00:16:00,
2013-05-26 18:31:00,70.5,40.0,29.68,NE,53,6.0,8.0,33,0.00,,,0.00,weatherlink.com 1.10,2013-05-27 00:31:00,
2013-05-26 18:46:00,70.0,43.0,29.68,SSE,165,8.0,17.0,38,0.00,,,0.00,weatherlink.com 1.10,2013-05-27 00:46:00,
2013-05-26 19:01:00,69.9,41.0,29.67,SSE,150,4.0,10.0,35,0.00,,,0.00,weatherlink.com 1.10,2013-05-27 01:01:00,
2013-05-26 19:16:00,69.7,42.0,29.66,SE,141,0.0,4.0,37,0.00,,,0.00,weatherlink.com 1.10,2013-05-27 01:16:00,
2013-05-26 19:31:00,70.9,41.0,29.66,SE,141,0.0,3.0,34,0.00,,,0.00,weatherlink.com 1.10,2013-05-27 01:31:00,
2013-05-26 19:46:00,70.4,41.0,29.66,SE,141,1.0,2.0,35,0.00,,,0.00,weatherlink.com 1.10,2013-05-27 01:46:00,
2013-05-26 20:01:00,69.3,42.0,29.66,SE,141,3.0,4.0,38,0.00,,,0.00,weatherlink.com 1.10,2013-05-27 02:01:00,
2013-05-26 20:16:00,67.3,45.0,29.67,ESE,103,5.0,10.0,45,0.00,,,0.00,weatherlink.com 1.10,2013-05-27 02:16:00,
2013-05-26 20:31:00,65.5,47.0,29.67,ESE,103,3.0,9.0,51,0.00,,,0.00,weatherlink.com 1.10,2013-05-27 02:31:00,
2013-05-26 20:46:00,64.4,47.0,29.67,ESE,103,7.0,7.0,54,0.00,,,0.00,weatherlink.com 1.10,2013-05-27 02:46:00,
2013-05-26 21:01:00,63.3,48.0,29.66,ESE,103,8.0,9.0,57,0.00,,,0.00,weatherlink.com 1.10,2013-05-27 03:01:00,
2013-05-26 21:16:00,62.8,48.0,29.66,ENE,72,7.0,12.0,59,0.00,,,0.00,weatherlink.com 1.10,2013-05-27 03:16:00,
2013-05-26 21:31:00,62.4,49.0,29.66,ENE,72,0.0,8.0,61,0.00,,,0.00,weatherlink.com 1.10,2013-05-27 03:31:00,
2013-05-26 21:46:00,61.4,49.0,29.66,ENE,72,2.0,7.0,64,0.00,,,0.00,weatherlink.com 1.10,2013-05-27 03:46:00,
2013-05-26 22:02:00,60.0,49.0,29.66,ENE,72,2.0,4.0,67,0.00,,,0.00,weatherlink.com 1.10,2013-05-27 04:02:00,
2013-05-26 22:17:00,59.3,49.0,29.65,ENE,72,0.0,2.0,68,0.00,,,0.00,weatherlink.com 1.10,2013-05-27 04:17:00,
2013-05-26 22:32:00,58.7,49.0,29.66,ENE,72,5.0,8.0,69,0.00,,,0.00,weatherlink.com 1.10,2013-05-27 04:32:00,
2013-05-26 22:47:00,58.9,47.0,29.66,ENE,72,0.0,1.0,66,0.00,,,0.00,weatherlink.com 1.10,2013-05-27 04:47:00,
2013-05-26 23:02:00,59.2,46.0,29.67,ENE,72,4.0,9.0,63,0.00,,,0.00,weatherlink.com 1.10,2013-05-27 05:02:00,
2013-05-26 23:17:00,58.7,46.0,29.68,ENE,72,4.0,8.0,64,0.00,,,0.00,weatherlink.com 1.10,2013-05-27 05:17:00,
2013-05-26 23:32:00,58.5,46.0,29.69,ENE,72,3.0,4.0,64,0.00,,,0.00,weatherlink.com 1.10,2013-05-27 05:32:00,
2013-05-26 23:47:00,58.7,46.0,29.69,NNE,16,6.0,12.0,63,0.00,,,0.00,weatherlink.com 1.10,2013-05-27 05:47:00,